Ely, MN

10:44 AM CDT on April 21, 2018 (GMT -0500)
Ely Municipal

Weather History for KELO - April, 2013

Change the Weather History Date:

Saturday, April 20, 2013

  Actual Average Record
Temperature  
Mean Temperature 13 °F -  
Max Temperature 33 °F 50 °F 68 °F (2007)
Min Temperature -7 °F 26 °F -7 °F (2013)
Degree Days  
Heating Degree Days 52    
Moisture  
Dew Point 3 °F    
Average Humidity 54    
Maximum Humidity 92    
Minimum Humidity 25    
Precipitation  
Precipitation 0.02 in - - ()
Sea Level Pressure  
Sea Level Pressure 30.16 in    
Wind  
Wind Speed 2 mph (SW)    
Max Wind Speed 8 mph    
Max Gust Speed -    
Visibility 10 miles    
Events      
Averages and records for this station are not official NWS values.
T = Trace of Precipitation, MM = Missing Value Source: NWS Daily Summary

Daily Weather History Graph

Daily Weather History Graph

Search for Another Location

Airport or City:

Astronomy

Apr. 20, 2013 Rise Set
Actual Time 6:08 AM CDT 8:04 PM CDT
Civil Twilight 5:35 AM CDT 8:38 PM CDT
Nautical Twilight 4:54 AM CDT 9:19 PM CDT
Astronomical Twilight 4:09 AM CDT 10:04 PM CDT
Moon 2:27 PM CDT (4/20) 3:21 AM CDT (4/20)
Length of Visible Light 15h 02m
Length of Day
13h 56m
Waxing Gibbous, 71% of the Moon is Illuminated
Apr 20
Waxing Gibbous
Apr 25
Full
May 2
Last Quarter
May 9
New
May 17
First Quarter

Hourly Weather History & Observations

Time (CDT) Temp. Windchill Dew Point Humidity Pressure Visibility Wind Dir Wind Speed Gust Speed Precip Events Conditions
2:01 AM 6.8 °F - 3.2 °F 85% 29.95 in 10.0 mi NW 1.2 mph - N/A   Unknown
2:59 AM 1.4 °F - -0.4 °F 92% 29.97 in 10.0 mi Calm Calm - N/A   Unknown
3:13 AM 1.4 °F - -0.4 °F 92% 29.97 in 10.0 mi Calm Calm - N/A   Unknown
3:32 AM 5.0 °F - -0.4 °F 78% 29.98 in 10.0 mi Calm Calm - N/A   Unknown
3:53 AM 1.4 °F - -0.4 °F 92% 29.99 in 10.0 mi Calm Calm - N/A   Unknown
4:12 AM -2.2 °F - -5.8 °F 85% 30.00 in 10.0 mi Calm Calm - N/A   Unknown
4:33 AM -5.8 °F - -7.6 °F 92% 30.01 in 10.0 mi Calm Calm - N/A   Unknown
4:53 AM -4.0 °F - -7.6 °F 85% 30.02 in 10.0 mi Calm Calm - N/A   Unknown
5:12 AM -5.8 °F - -9.4 °F 84% 30.03 in 10.0 mi Calm Calm - N/A   Unknown
5:33 AM -5.8 °F - -9.4 °F 84% 30.03 in 10.0 mi Calm Calm - N/A   Unknown
5:53 AM -5.8 °F - -9.4 °F 84% 30.04 in 10.0 mi Calm Calm - N/A   Unknown
6:12 AM -7.6 °F - -11.2 °F 84% 30.05 in 10.0 mi Calm Calm - N/A   Unknown
6:33 AM -5.8 °F - -9.4 °F 84% 30.07 in 10.0 mi Calm Calm - N/A   Unknown
6:53 AM -5.8 °F - -9.4 °F 84% 30.07 in 10.0 mi Calm Calm - N/A   Unknown
7:12 AM -2.2 °F - -5.8 °F 85% 30.08 in 10.0 mi Calm Calm - N/A   Unknown
7:33 AM 3.2 °F -4.2 °F -0.4 °F 85% 30.10 in 10.0 mi WNW 3.5 mph - N/A   Unknown
7:53 AM 10.4 °F 4.0 °F 5.0 °F 79% 30.11 in 10.0 mi WNW 3.5 mph - N/A   Unknown
8:12 AM 14.0 °F 8.2 °F 6.8 °F 73% 30.12 in 10.0 mi WNW 3.5 mph - N/A   Unknown
8:33 AM 15.8 °F 8.6 °F 5.0 °F 62% 30.13 in 10.0 mi NE 4.6 mph - N/A   Unknown
8:53 AM 17.6 °F - 3.2 °F 53% 30.14 in 10.0 mi Calm Calm - N/A   Unknown
9:12 AM 17.6 °F 12.3 °F 1.4 °F 49% 30.14 in 10.0 mi North 3.5 mph - N/A   Unknown
9:33 AM 17.6 °F - 1.4 °F 49% 30.15 in 10.0 mi Calm Calm - N/A   Unknown
9:53 AM 19.4 °F 10.4 °F 3.2 °F 49% 30.16 in 10.0 mi NW 6.9 mph - N/A   Unknown
10:12 AM 19.4 °F 11.5 °F 3.2 °F 49% 30.17 in 10.0 mi NNW 5.8 mph - N/A   Unknown
10:33 AM 21.2 °F 11.7 °F 3.2 °F 46% 30.18 in 10.0 mi NW 8.1 mph - N/A   Unknown
10:52 AM 21.2 °F 12.6 °F 3.2 °F 46% 30.18 in 10.0 mi NNW 6.9 mph - N/A   Unknown
11:13 AM 23.0 °F 13.9 °F 3.2 °F 43% 30.19 in 10.0 mi NW 8.1 mph - N/A   Unknown
11:33 AM 24.8 °F 16.1 °F 3.2 °F 40% 30.19 in 10.0 mi NW 8.1 mph - N/A   Unknown
11:52 AM 24.8 °F 20.5 °F 1.4 °F 36% 30.20 in 10.0 mi NW 3.5 mph - N/A   Unknown
12:13 PM 26.6 °F 22.6 °F 5.0 °F 40% 30.20 in 10.0 mi NW 3.5 mph - N/A   Unknown
12:33 PM 28.4 °F - 3.2 °F 34% 30.20 in 10.0 mi Calm Calm - 0.01 in   Unknown
12:52 PM 28.4 °F 22.2 °F 5.0 °F 37% 30.20 in 10.0 mi NW 5.8 mph - 0.01 in   Unknown
1:13 PM 28.4 °F - 3.2 °F 34% 30.20 in 10.0 mi Calm Calm - 0.01 in   Unknown
1:33 PM 30.2 °F 26.7 °F 5.0 °F 34% 30.20 in 10.0 mi SW 3.5 mph - 0.01 in   Unknown
1:52 PM 30.2 °F 26.7 °F 5.0 °F 34% 30.20 in 10.0 mi West 3.5 mph - 0.01 in   Unknown
2:13 PM 30.2 °F - 3.2 °F 32% 30.20 in 10.0 mi Calm Calm - N/A   Unknown
2:32 PM 30.2 °F - 3.2 °F 32% 30.20 in 10.0 mi Calm Calm - N/A   Unknown
2:51 PM 30.2 °F 25.4 °F 3.2 °F 32% 30.20 in 10.0 mi SE 4.6 mph - N/A   Unknown
3:13 PM 32.0 °F - 6.8 °F 35% 30.20 in 10.0 mi Calm Calm - N/A   Unknown
3:33 PM 32.0 °F 28.7 °F 6.8 °F 35% 30.21 in 10.0 mi West 3.5 mph - N/A   Unknown
3:52 PM 32.0 °F - 3.2 °F 30% 30.21 in 10.0 mi Calm Calm - N/A   Unknown
4:13 PM 33.8 °F - 3.2 °F 28% 30.21 in 10.0 mi Calm Calm - N/A   Unknown
4:33 PM 33.8 °F 30.8 °F 5.0 °F 30% 30.21 in 10.0 mi South 3.5 mph - N/A   Unknown
4:52 PM 33.8 °F 28.6 °F 3.2 °F 28% 30.21 in 10.0 mi WSW 5.8 mph - N/A   Unknown
5:13 PM 33.8 °F 27.7 °F 3.2 °F 28% 30.21 in 10.0 mi SSW 6.9 mph - N/A   Unknown
5:33 PM 33.8 °F 29.6 °F 3.2 °F 28% 30.21 in 10.0 mi SE 4.6 mph - N/A   Unknown
5:52 PM 33.8 °F - 3.2 °F 28% 30.21 in 10.0 mi Calm Calm - N/A   Unknown
6:13 PM 33.8 °F 30.8 °F 3.2 °F 28% 30.21 in 10.0 mi SSE 3.5 mph - N/A   Unknown
6:32 PM 33.8 °F 30.8 °F 3.2 °F 28% 30.22 in 10.0 mi SSE 3.5 mph - N/A   Unknown
6:53 PM 33.8 °F 28.6 °F 1.4 °F 25% 30.22 in 10.0 mi South 5.8 mph - N/A   Unknown
7:13 PM 33.8 °F 30.8 °F 1.4 °F 25% 30.22 in 10.0 mi South 3.5 mph - N/A   Unknown
7:32 PM 32.0 °F - 1.4 °F 27% 30.22 in 10.0 mi Calm Calm - N/A   Unknown
7:53 PM 30.2 °F - 6.8 °F 37% 30.22 in 10.0 mi Calm Calm - N/A   Unknown
8:13 PM 26.6 °F - 10.4 °F 51% 30.23 in 10.0 mi Calm Calm - N/A   Unknown
8:32 PM 26.6 °F - 15.8 °F 64% 30.24 in 10.0 mi Calm Calm - N/A   Unknown
8:53 PM 26.6 °F 18.2 °F 12.2 °F 55% 30.25 in 10.0 mi SSE 8.1 mph - N/A   Unknown
9:13 PM 26.6 °F 19.1 °F 14.0 °F 59% 30.25 in 10.0 mi SSE 6.9 mph - N/A   Unknown
9:32 PM 24.8 °F 19.1 °F 14.0 °F 64% 30.26 in 10.0 mi SSE 4.6 mph - N/A   Unknown
9:53 PM 24.8 °F 16.9 °F 12.2 °F 59% 30.26 in 10.0 mi SSE 6.9 mph - N/A   Unknown
10:13 PM 24.8 °F 16.9 °F 12.2 °F 59% 30.26 in 10.0 mi SSE 6.9 mph - N/A   Unknown
10:32 PM 23.0 °F 15.8 °F 12.2 °F 63% 30.27 in 10.0 mi SSE 5.8 mph - N/A   Unknown
10:53 PM 21.2 °F 12.6 °F 10.4 °F 63% 30.27 in 10.0 mi SSE 6.9 mph - N/A   Unknown
11:12 PM 21.2 °F 13.6 °F 10.4 °F 63% 30.27 in 10.0 mi SSE 5.8 mph - N/A   Unknown
11:33 PM 21.2 °F 11.7 °F 12.2 °F 68% 30.27 in 10.0 mi SSE 8.1 mph - N/A   Unknown
11:53 PM 21.2 °F 13.6 °F 12.2 °F 68% 30.27 in 10.0 mi SSE 5.8 mph - N/A   Unknown